Location: Recife
(8.0585°S, 34.8848°W)
Time: 01:25:26
(UTC-03:00)

Vanguard 3 - Pass Details

Date: 21 April 2026
Orbit: 507 x 3205 km, 33.4° (Epoch: 15 May)

Event Time Altitude Azimuth Distance (km) Brightness Sun altitude
Rises 17:58:17 0° 255° (WSW) 6,651 13.1 -11.4°
Reaches altitude 10° 18:04:18 10° 266° (W) 5,224 12.6 -12.9°
Maximum altitude 18:14:59 25° 314° (NW) 3,179 10.8 -15.5°
Drops below altitude 10° 18:22:15 10° 6° (N) 3,426 10.4 -17.2°
Sets 18:25:16 0° 20° (NNE) 4,035 10.6 -18.0°
